Tallahassee, FL

11:46 PM EST on January 23, 2018 (GMT -0500)
Tallahassee Regional

Weather History for KTLH - July, 2013

Change the Weather History Date:

Monday, July 15, 2013

  Actual Average Record
Temperature  
Mean Temperature 83 °F 82 °F  
Max Temperature 91 °F 92 °F 104 °F (1932)
Min Temperature 74 °F 72 °F 62 °F (1967)
Degree Days  
Heating Degree Days 0    
Month to date heating degree days 0  
Since 1 June heating degree days 0  
Since 1 July heating degree days 0  
Cooling Degree Days 18    
Month to date cooling degree days 227  
Year to date cooling degree days 1209  
Since 1 June cooling degree days 747  
Growing Degree Days 32 (Base 50)    
Moisture  
Dew Point 71 °F    
Average Humidity 67    
Maximum Humidity 87    
Minimum Humidity 47    
Precipitation  
Precipitation T in 0.21 in 2.92 in (1957)
Month to date precipitation 6.90 3.42  
Year to date precipitation 36.61 32.81  
Sea Level Pressure  
Sea Level Pressure 30.12 in    
Wind  
Wind Speed 8 mph (East)    
Max Wind Speed 22 mph    
Max Gust Speed 28 mph    
Visibility 10 miles    
Events Rain , Thunderstorm    
T = Trace of Precipitation, MM = Missing Value Source: NWS Daily Summary

Daily Weather History Graph

Daily Weather History Graph

Search for Another Location

Airport or City:

Trip Planner

Search our weather history database for the weather conditions in past years. The results will help you decide how hot, cold, wet, or windy it might be!

Date:

Astronomy

Jul. 15, 2013 Rise Set
Actual Time 6:45 AM EDT 8:40 PM EDT
Civil Twilight 6:18 AM EDT 9:07 PM EDT
Nautical Twilight 5:46 AM EDT 9:40 PM EDT
Astronomical Twilight 5:11 AM EDT 10:14 PM EDT
Moon 1:29 PM EDT (7/15) 12:24 AM EDT (7/15)
Length of Visible Light 14h 48m
Length of Day
13h 55m
Waxing Crescent, 45% of the Moon is Illuminated
Jul 15
Waxing Crescent
Jul 15
First Quarter
Jul 22
Full
Jul 29
Last Quarter
Aug 6
New

Hourly Weather History & Observations

Time (EDT) Temp. Heat Index Dew Point Humidity Pressure Visibility Wind Dir Wind Speed Gust Speed Precip Events Conditions
12:53 AM 75.0 °F - 71.1 °F 87% 30.10 in 10.0 mi East 10.4 mph - N/A   Clear
1:53 AM 75.0 °F - 71.1 °F 87% 30.10 in 10.0 mi ESE 3.5 mph - N/A   Clear
2:53 AM 73.9 °F - 70.0 °F 87% 30.10 in 10.0 mi East 4.6 mph - N/A   Partly Cloudy
3:53 AM 73.9 °F - 70.0 °F 87% 30.10 in 10.0 mi East 8.1 mph - N/A   Clear
4:53 AM 73.9 °F - 70.0 °F 87% 30.11 in 10.0 mi East 8.1 mph - N/A   Clear
5:38 AM 73.4 °F - 69.8 °F 88% 30.11 in 10.0 mi East 12.7 mph - N/A   Mostly Cloudy
5:53 AM 73.9 °F - 70.0 °F 87% 30.11 in 10.0 mi East 12.7 mph - N/A   Overcast
6:27 AM 73.4 °F - 69.8 °F 88% 30.12 in 10.0 mi East 10.4 mph - N/A   Overcast
6:53 AM 73.9 °F - 70.0 °F 87% 30.12 in 10.0 mi East 10.4 mph - N/A   Overcast
7:03 AM 73.4 °F - 69.8 °F 88% 30.13 in 10.0 mi East 8.1 mph - N/A   Overcast
7:53 AM 75.0 °F - 70.0 °F 84% 30.14 in 10.0 mi ESE 10.4 mph - N/A   Overcast
8:10 AM 75.2 °F - 69.8 °F 83% 30.15 in 10.0 mi East 10.4 mph - N/A   Overcast
8:53 AM 77.0 °F - 70.0 °F 79% 30.15 in 10.0 mi East 10.4 mph - N/A   Overcast
9:29 AM 78.8 °F - 69.8 °F 74% 30.17 in 10.0 mi East 12.7 mph - N/A   Overcast
9:53 AM 79.0 °F - 70.0 °F 74% 30.17 in 10.0 mi East 10.4 mph - N/A   Overcast
10:53 AM 81.0 °F 84.1 °F 69.1 °F 67% 30.17 in 10.0 mi East 9.2 mph - N/A   Overcast
11:50 AM 84.2 °F 88.4 °F 69.8 °F 62% 30.17 in 10.0 mi East 11.5 mph - N/A   Mostly Cloudy
11:53 AM 84.0 °F 87.8 °F 69.1 °F 61% 30.17 in 10.0 mi ESE 11.5 mph - N/A   Mostly Cloudy
12:53 PM 87.1 °F 90.6 °F 68.0 °F 53% 30.17 in 10.0 mi East 12.7 mph - N/A   Scattered Clouds
1:53 PM 88.0 °F 90.3 °F 66.0 °F 48% 30.13 in 10.0 mi ENE 11.5 mph - N/A   Scattered Clouds
2:53 PM 90.0 °F 92.8 °F 66.9 °F 46% 30.11 in 10.0 mi NE 9.2 mph - N/A   Mostly Cloudy
3:21 PM 84.2 °F 90.9 °F 73.4 °F 70% 30.11 in 9.0 mi East 6.9 mph 20.7 mph 0.00 in Rain , Thunderstorm Light Thunderstorms and Rain
3:53 PM 88.0 °F 92.9 °F 70.0 °F 55% 30.09 in 10.0 mi East 5.8 mph - 0.00 in   Mostly Cloudy
4:53 PM 90.0 °F 95.4 °F 70.0 °F 52% 30.07 in 10.0 mi ENE 13.8 mph - N/A Thunderstorm Thunderstorm
5:49 PM 82.4 °F 88.2 °F 73.4 °F 74% 30.08 in 10.0 mi ESE 6.9 mph - 0.00 in Thunderstorm Thunderstorm
5:53 PM 82.0 °F 87.9 °F 73.9 °F 76% 30.08 in 10.0 mi ESE 4.6 mph - 0.00 in Thunderstorm Thunderstorm
6:53 PM 82.9 °F 88.0 °F 72.0 °F 69% 30.09 in 10.0 mi SE 3.5 mph - N/A Thunderstorm Thunderstorm
7:11 PM 82.4 °F 88.2 °F 73.4 °F 74% 30.10 in 10.0 mi Calm Calm - N/A   Scattered Clouds
7:53 PM 82.0 °F 87.9 °F 73.9 °F 76% 30.10 in 10.0 mi East 5.8 mph - N/A   Scattered Clouds
8:53 PM 82.0 °F 86.3 °F 71.1 °F 69% 30.12 in 10.0 mi East 5.8 mph - N/A   Scattered Clouds
9:53 PM 80.1 °F 83.6 °F 71.1 °F 74% 30.14 in 10.0 mi ENE 6.9 mph - N/A   Partly Cloudy
10:53 PM 80.1 °F 83.6 °F 71.1 °F 74% 30.15 in 10.0 mi East 6.9 mph - N/A   Clear
11:53 PM 79.0 °F - 72.0 °F 79% 30.15 in 10.0 mi East 9.2 mph - N/A   Clear